Date String (YYYY-MM-DD hh:mm:ss) UTC,Instrument flags,absolute air pressure of the measurement (hPa),sample flow rate (lpm),inlet stack bypass flow (lpm),air temperature of the measurement (°C),ambient temperature measured by the external sensor (°C),aerosol sample conditioner tube jacket temperature (°C),OPC LED temperature (°C),internal box temperature (°C),relative humidity of the measurement (%),span deviation,mass concentration of particles derived from Lorenz-Mie calculation of OPC scattering (μg/m³),mass concentration of particles derived from Lorenz-Mie calculation of OPC scattering (μg/m³),mass concentration of particles derived from Lorenz-Mie calculation of OPC scattering (μg/m³)
DateTimeUTC,F1_M11,P_M11,Q1_M11,Q2_M11,T1_M11,T2_M11,T3_M11,T4_M11,T5_M11,U1_M11,ZSPAN_M11,X2_M11,X0_M11,X1_M11
2023-11-16 07:00:00,SystemResetWarning,0825.6,5.00,000.00,026.7,025.6,000.0,035.2,028.2,7.8,0000.0,0004.74,0014.53,0003.85
2023-11-16 07:01:00,SystemResetWarning,0825.6,5.00,000.00,026.7,025.6,000.0,035.1,028.2,7.9,0000.0,0004.49,0013.10,0003.67
2023-11-16 07:02:00,SystemResetWarning,0825.5,5.00,000.00,026.8,025.6,000.0,035.1,028.2,7.9,0000.0,0004.24,0012.63,0003.48
2023-11-16 07:03:00,SystemResetWarning,0825.5,5.00,000.00,026.8,025.6,000.0,035.1,028.2,7.9,0000.0,0003.96,0011.39,0003.30
2023-11-16 07:04:00,SystemResetWarning,0825.5,5.00,000.00,026.8,025.6,000.0,035.1,028.1,7.9,0000.0,0003.77,0010.85,0003.17
2023-11-16 07:05:00,SystemResetWarning,0825.5,5.00,000.00,026.7,025.6,000.0,035.1,028.2,7.8,0000.0,0003.82,0012.17,0003.20
2023-11-16 07:06:00,SystemResetWarning,0825.5,4.99,000.00,026.7,025.6,000.0,035.1,028.2,7.9,0000.0,0003.95,0012.26,0003.29
2023-11-16 07:07:00,SystemResetWarning,0825.6,5.00,000.00,026.7,025.7,000.0,035.1,028.2,7.9,0000.0,0004.11,0012.34,0003.45
2023-11-16 07:08:00,SystemResetWarning,0825.7,5.00,000.00,026.8,025.7,000.0,035.1,028.1,7.9,0000.0,0004.29,0012.74,0003.62
2023-11-16 07:09:00,SystemResetWarning,0825.7,5.00,000.00,026.8,025.7,000.0,035.1,028.1,8.0,0000.0,0004.45,0012.86,0003.78
2023-11-16 07:10:00,SystemResetWarning,0825.7,5.01,000.00,026.8,025.7,000.0,035.1,028.1,8.1,0000.0,0004.61,0013.53,0003.90
2023-11-16 07:11:00,SystemResetWarning,0825.8,5.01,000.00,026.7,025.6,000.0,035.1,028.1,8.0,0000.0,0004.75,0014.67,0003.95
2023-11-16 07:12:00,SystemResetWarning,0825.7,5.00,000.00,026.7,025.6,000.0,035.1,028.1,8.0,0000.0,0004.78,0014.67,0003.98
2023-11-16 07:13:00,SystemResetWarning,0825.6,5.00,000.00,026.7,025.5,000.0,035.1,028.1,7.9,0000.0,0004.82,0014.34,0003.98
2023-11-16 07:14:00,SystemResetWarning,0825.5,5.00,000.00,026.7,025.5,000.0,035.1,028.1,7.9,0000.0,0004.95,0014.49,0004.06
2023-11-16 07:15:00,SystemResetWarning,0825.5,5.00,000.00,026.7,025.6,000.0,035.1,028.1,7.9,0000.0,0005.09,0015.60,0004.16
2023-11-16 07:16:00,SystemResetWarning,0825.6,5.00,000.00,026.7,025.6,000.0,035.1,028.1,7.9,0000.0,0005.06,0014.31,0004.15
2023-11-16 07:17:00,SystemResetWarning,0825.6,5.00,000.00,026.7,025.6,000.0,035.1,028.1,7.9,0000.0,0005.00,0014.00,0004.10
2023-11-16 07:18:00,SystemResetWarning,0825.7,5.00,000.00,026.7,025.6,000.0,035.1,028.2,7.9,0000.0,0004.95,0013.31,0004.00
2023-11-16 07:19:00,SystemResetWarning,0825.7,4.99,000.00,026.7,025.6,000.0,035.1,028.1,7.9,0000.0,0004.82,0012.73,0003.89
2023-11-16 07:20:00,SystemResetWarning,0825.6,4.99,000.00,026.7,025.6,000.0,035.1,028.2,7.9,0000.0,0004.73,0014.13,0003.78
2023-11-16 07:21:00,SystemResetWarning,0825.6,5.00,000.00,026.7,025.6,000.0,035.1,028.1,7.9,0000.0,0004.67,0014.43,0003.72
2023-11-16 07:22:00,SystemResetWarning,0825.6,5.00,000.00,026.7,025.6,000.0,035.1,028.1,7.9,0000.0,0004.71,0013.83,0003.76
2023-11-16 07:23:00,SystemResetWarning,0825.6,5.01,000.00,026.7,025.6,000.0,035.1,028.1,7.9,0000.0,0004.80,0014.91,0003.81
2023-11-16 07:24:00,SystemResetWarning,0825.6,5.01,000.00,026.7,025.6,000.0,035.1,028.1,7.9,0000.0,0004.87,0015.60,0003.89
2023-11-16 07:25:00,SystemResetWarning,0825.6,5.00,000.00,026.7,025.6,000.0,035.1,028.1,7.9,0000.0,0004.84,0015.41,0003.91
2023-11-16 07:26:00,SystemResetWarning,0825.7,5.00,000.00,026.7,025.6,000.0,035.1,028.1,7.9,0000.0,0004.78,0014.76,0003.88
2023-11-16 07:27:00,SystemResetWarning,0825.8,4.99,000.00,026.7,025.6,000.0,035.1,028.1,7.8,0000.0,0004.80,0014.60,0003.90
2023-11-16 07:28:00,SystemResetWarning,0825.7,4.99,000.00,026.7,025.5,000.0,035.1,028.1,7.8,0000.0,0004.83,0014.53,0003.93
2023-11-16 07:29:00,SystemResetWarning,0825.5,4.99,000.00,026.7,025.5,000.0,035.1,028.1,7.8,0000.0,0004.86,0014.55,0003.96
2023-11-16 07:30:00,SystemResetWarning,0825.4,5.00,000.00,026.7,025.6,000.0,035.1,028.1,7.8,0000.0,0004.94,0015.47,0004.00
2023-11-16 07:31:00,SystemResetWarning,0825.3,5.00,000.00,026.7,025.6,000.0,035.1,028.1,7.8,0000.0,0005.01,0014.15,0004.05
2023-11-16 07:32:00,SystemResetWarning,0825.3,5.00,000.00,026.7,025.6,000.0,035.1,028.1,7.8,0000.0,0005.00,0013.45,0004.04
2023-11-16 07:33:00,SystemResetWarning,0825.2,5.00,000.00,026.7,025.6,000.0,035.1,028.0,7.9,0000.0,0004.86,0012.86,0003.95
2023-11-16 07:34:00,SystemResetWarning,0825.3,5.00,000.00,026.7,025.6,000.0,035.1,028.1,8.0,0000.0,0004.81,0012.32,0003.89
2023-11-16 07:35:00,SystemResetWarning,0825.3,5.00,000.00,026.7,025.6,000.0,035.1,028.1,8.0,0000.0,0004.75,0011.99,0003.86
2023-11-16 07:36:00,SystemResetWarning,0825.4,5.00,000.00,026.7,025.6,000.0,035.1,028.1,8.0,0000.0,0004.73,0012.32,0003.84
2023-11-16 07:37:00,SystemResetWarning,0825.6,4.99,000.00,026.7,025.6,000.0,035.1,028.1,8.0,0000.0,0004.71,0012.09,0003.81
2023-11-16 07:38:00,SystemResetWarning,0825.6,4.99,000.00,026.7,025.6,000.0,035.1,028.0,8.0,0000.0,0004.68,0012.20,0003.79
2023-11-16 07:39:00,SystemResetWarning,0825.6,5.00,000.00,026.7,025.5,000.0,035.1,028.0,8.0,0000.0,0004.66,0012.18,0003.77
2023-11-16 07:40:00,SystemResetWarning,0825.6,5.01,000.00,026.7,025.5,000.0,035.1,028.0,8.0,0000.0,0004.61,0012.41,0003.73
2023-11-16 07:41:00,SystemResetWarning,0825.5,5.01,000.00,026.7,025.6,000.0,035.1,028.1,7.9,0000.0,0004.52,0012.10,0003.68
2023-11-16 07:42:00,SystemResetWarning,0825.4,5.00,000.00,026.7,025.6,000.0,035.1,028.0,7.9,0000.0,0004.46,0011.80,0003.65
2023-11-16 07:43:00,SystemResetWarning,0825.3,5.00,000.00,026.7,025.6,000.0,035.1,028.0,8.0,0000.0,0004.43,0011.89,0003.65
2023-11-16 07:44:00,SystemResetWarning,0825.3,5.00,000.00,026.7,025.6,000.0,035.1,028.1,7.9,0000.0,0004.45,0012.03,0003.70
2023-11-16 07:45:00,SystemResetWarning,0825.3,4.99,000.00,026.7,025.6,000.0,035.1,028.1,7.9,0000.0,0004.48,0011.88,0003.73
2023-11-16 07:46:00,SystemResetWarning,0825.3,5.00,000.00,026.7,025.6,000.0,035.1,028.1,7.9,0000.0,0004.46,0011.29,0003.77
2023-11-16 07:47:00,SystemResetWarning,0825.3,5.00,000.00,026.7,025.6,000.0,035.0,028.1,8.0,0000.0,0004.53,0011.41,0003.79
2023-11-16 07:48:00,SystemResetWarning,0825.4,5.00,000.00,026.7,025.6,000.0,035.0,028.0,8.0,0000.0,0004.60,0011.82,0003.82
2023-11-16 07:49:00,SystemResetWarning,0825.5,5.00,000.00,026.7,025.6,000.0,035.0,028.0,8.0,0000.0,0004.65,0011.98,0003.85
2023-11-16 07:50:00,SystemResetWarning,0825.6,5.00,000.00,026.7,025.6,000.0,035.0,028.1,8.0,0000.0,0004.71,0012.04,0003.88
2023-11-16 07:51:00,SystemResetWarning,0825.6,5.00,000.00,026.7,025.6,000.0,035.0,028.1,8.0,0000.0,0004.74,0013.21,0003.92
2023-11-16 07:52:00,SystemResetWarning,0825.4,5.00,000.00,026.7,025.6,000.0,035.0,028.1,8.0,0000.0,0004.79,0012.86,0003.98
2023-11-16 07:53:00,SystemResetWarning,0825.4,5.00,000.00,026.7,025.6,000.0,035.0,028.1,7.9,0000.0,0004.88,0013.08,0004.05
2023-11-16 07:54:00,SystemResetWarning,0825.5,5.00,000.00,026.7,025.7,000.0,035.0,028.1,7.9,0000.0,0004.94,0013.21,0004.12
2023-11-16 07:55:00,SystemResetWarning,0825.5,5.01,000.00,026.7,025.6,000.0,035.0,028.1,8.1,0000.0,0005.04,0013.75,0004.17
2023-11-16 07:56:00,SystemResetWarning,0825.4,5.00,000.00,026.7,025.6,000.0,035.0,028.1,8.1,0000.0,0005.11,0014.15,0004.19
2023-11-16 07:57:00,SystemResetWarning,0825.3,5.01,000.00,026.7,025.6,000.0,035.0,028.1,8.2,0000.0,0005.16,0014.15,0004.20
2023-11-16 07:58:00,SystemResetWarning,0825.2,5.00,000.00,026.7,025.6,000.0,035.0,028.1,8.1,0000.0,0005.14,0013.76,0004.23
2023-11-16 07:59:00,SystemResetWarning,0825.3,5.00,000.00,026.7,025.6,000.0,035.0,028.1,7.9,0000.0,0005.15,0013.24,0004.24
